User: anonymous   Login
Location: Pulvis Stellarum Observatory
(41.6962°N, 71.4263°W)
Time: 02:49:31
(UTC-04:00)
Language:

Cosmos 1758 - Orbit

View from above orbital plane
View from above orbital plane
View from above satellite
View from above satellite

Ground track
Ground track

The orbit data is extracted from the following two-line orbital elements,

1 16791U 86046A   15240.20865733  .00001452  00000-0  10481-3 0  9993
2 16791 082.4723 313.6731 0017526 165.0924 195.0822 15.03277228586636
Epoch (UTC): 28 August 2015 05:00:27
Eccentricity: 0.0017526
inclination: 82.4723°
perigee height: 544 km
apogee height: 569 km
right ascension of ascending node: 313.6731°
argument of perigee: 165.0924°
revolutions per day: 15.03277228
mean anomaly at epoch: 195.0822°
orbit number at epoch: 58663

The dashed part of the orbit path shows where the satellite is in the earth's shadow,  

DLR